FW6154 Weather Reports


time (UTC)temp
C
wind
direction
speed
KPH
gust
KPH
rain 1hr
cm
rain 24hr
cm
rain mn
cm
humidity
%
barometer
mb
20260505122300 13 180 0.0 0.0 0.00 0.00 0.00 77 1014.9
20260505121751 13 113 0.0 0.0 0.00 0.00 0.00 76 1014.6
20260505121240 13 135 0.0 0.0 0.00 0.00 0.00 75 1014.6
20260505120731 13 225 0.0 0.0 0.00 0.00 0.00 74 1014.5
20260505120220 13 225 0.0 0.0 0.00 0.00 0.00 74 1014.7
20260505115710 13 113 0.0 0.0 0.00 0.00 0.00 73 1014.6
20260505115200 13 203 0.0 0.0 0.00 0.00 0.00 72 1014.5
20260505114649 13 158 0.0 0.0 0.00 0.00 0.00 74 1014.2
20260505114139 13 113 0.0 0.0 0.00 0.00 0.00 74 1013.8
20260505113629 13 113 0.0 0.0 0.00 0.00 0.00 73 1013.9
20260505113119 13 113 0.0 0.0 0.00 0.00 0.00 72 1014.3
20260505112059 14 203 0.0 0.0 0.00 0.00 0.00 68 1014.1
20260505111548 14 270 0.0 0.0 0.00 0.00 0.00 68 1013.9
20260505111039 13 135 0.0 0.0 0.00 0.00 0.00 70 1014.3
20260505101857 13 113 0.0 0.0 0.00 0.00 0.00 71 1013.2
20260505101348 13 90 0.0 0.0 0.00 0.00 0.00 68 1013.1
20260505100837 14 90 0.0 0.0 0.00 0.00 0.00 67 1013.0
20260505100328 13 68 0.0 0.0 0.00 0.00 0.00 70 1013.0
20260505095817 13 293 0.0 0.0 0.00 0.00 0.00 70 1013.1
20260505094758 13 113 0.0 0.0 0.00 0.00 0.00 68 1012.7
20260505094247 13 45 0.0 0.0 0.00 0.00 0.00 68 1012.6
20260505093738 14 135 0.0 0.0 0.00 0.00 0.00 67 1012.6
20260505093228 14 68 0.0 0.0 0.00 0.00 0.00 64 1012.2
20260505092716 14 113 0.0 0.0 0.00 0.00 0.00 66 1012.9
20260505092206 14 45 0.0 0.0 0.00 0.00 0.00 65 1012.7
20260505091656 14 90 0.0 0.0 0.00 0.00 0.00 65 1012.7
20260505090636 15 248 0.0 0.0 0.00 0.00 0.00 63 1012.7
20260505090126 14 45 0.0 0.0 0.00 0.00 0.00 63 1012.6
20260505084046 13 270 0.0 0.0 0.00 0.00 0.00 66 1012.6
20260505083535 13 270 0.0 0.0 0.00 0.00 0.00 65 1012.7
20260505083034 13 293 0.0 0.0 0.00 0.00 0.00 67 1012.4
20260505082515 13 135 0.0 0.0 0.00 0.00 0.00 67 1011.8
20260505082005 13 68 0.0 0.0 0.00 0.00 0.00 64 1011.8
20260505081458 13 113 0.0 0.0 0.00 0.00 0.00 64 1012.0
20260505080944 13 68 0.0 0.0 0.00 0.00 0.00 64 1011.9
20260505075925 13 90 0.0 0.0 0.00 0.00 0.00 61 1012.2
20260505075415 13 0 0.0 0.0 0.00 0.00 0.00 62 1012.3
20260505074904 13 90 0.0 0.0 0.00 0.00 0.00 62 1012.4
20260505074354 13 68 0.0 0.0 0.00 0.00 0.00 59 1012.6
20260505073844 13 90 0.0 0.0 0.00 0.00 0.00 58 1012.7
20260505073334 14 113 0.0 0.0 0.00 0.00 0.00 56 1013.1
20260505072824 14 270 0.0 0.0 0.00 0.00 0.00 56 1013.0
20260505072313 13 68 0.0 0.0 0.00 0.00 0.00 57 1012.8
20260505071804 13 23 0.0 0.0 0.00 0.00 0.00 59 1013.0
20260505071253 13 248 0.0 0.0 0.00 0.00 0.00 61 1012.8
20260505070744 13 158 0.0 0.0 0.00 0.00 0.00 60 1012.6
20260505065723 13 90 0.0 0.0 0.00 0.00 0.00 58 1012.7
20260505065214 13 113 0.0 0.0 0.00 0.00 0.00 59 1012.8
20260505064703 13 23 0.0 0.0 0.00 0.00 0.00 57 1012.8
20260505064154 13 45 0.0 0.0 0.00 0.00 0.00 57 1012.6
20260505062112 14 90 0.0 0.0 0.00 0.00 0.00 55 1012.8
20260505061602 14 225 0.0 0.0 0.00 0.00 0.00 53 1012.6
20260505061052 15 225 0.0 0.0 0.00 0.00 0.00 53 1012.4
20260505060542 15 248 0.0 0.0 0.00 0.00 0.00 50 1012.6
20260505060032 15 248 0.0 0.0 0.00 0.00 0.00 49 1012.6
20260505055521 15 248 0.0 0.0 0.00 0.00 0.00 50 1012.4
20260505055011 15 293 0.0 0.0 0.00 0.00 0.00 50 1012.2
20260505054501 15 293 0.0 0.0 0.00 0.00 0.00 50 1012.6
20260505053951 15 270 0.0 0.0 0.00 0.00 0.00 50 1012.6
20260505053441 15 293 0.0 0.0 0.00 0.00 0.00 51 1012.1
20260505052932 13 90 0.0 0.0 0.00 0.00 0.00 58 1012.1
20260505052421 13 90 0.0 0.0 0.00 0.00 0.00 56 1011.8
20260505051911 14 90 0.0 0.0 0.00 0.00 0.00 55 1012.0
20260505051400 14 90 0.0 0.0 0.00 0.00 0.00 54 1011.9
20260505050851 14 68 0.0 0.0 0.00 0.00 0.00 51 1011.9
20260505050342 13 68 0.0 0.0 0.00 0.00 0.00 54 1011.9
20260505041709 12 68 0.0 0.0 0.00 0.00 0.00 63 1012.1
20260505041201 12 90 0.0 0.0 0.00 0.00 0.00 64 1012.3
20260505040649 12 68 0.0 0.0 0.00 0.00 0.00 64 1012.2
20260505040140 12 68 0.0 0.0 0.00 0.00 0.00 65 1012.2
20260505035630 12 68 0.0 0.0 0.00 0.00 0.00 65 1012.3
20260505035119 12 90 0.0 0.0 0.00 0.00 0.00 64 1012.2
20260505034609 12 248 0.0 0.0 0.00 0.00 0.00 66 1012.2
20260505034059 12 270 0.0 0.0 0.00 0.00 0.00 65 1012.2
20260505032018 12 135 0.0 0.0 0.00 0.00 0.00 63 1012.3
20260505031509 13 90 0.0 0.0 0.00 0.00 0.00 62 1012.0
20260505030958 13 90 0.0 0.0 0.00 0.00 0.00 59 1012.3
20260505030448 13 225 0.0 0.0 0.00 0.00 0.00 59 1012.4
20260505025940 13 338 0.0 0.0 0.00 0.00 0.00 56 1012.3
20260505024925 12 113 0.0 0.0 0.00 0.00 0.00 63 1012.3
20260505024413 12 68 0.0 0.0 0.00 0.00 0.00 62 1012.0
20260505023859 12 68 0.0 0.0 0.00 0.00 0.00 61 1011.9
20260505023351 12 90 0.0 0.0 0.00 0.00 0.00 61 1011.8
20260505022845 12 45 0.0 0.0 0.00 0.00 0.00 63 1011.8
20260505022343 12 45 0.0 0.0 0.00 0.00 0.00 63 1011.9
20260505021818 13 23 0.0 0.0 0.00 0.00 0.00 62 1011.9
20260505021310 13 90 0.0 0.0 0.00 0.00 0.00 60 1012.1
20260505020247 13 68 0.0 0.0 0.00 0.00 0.00 56 1011.9
20260505015745 13 68 0.0 0.0 0.00 0.00 0.00 54 1011.8
20260505015234 13 68 0.0 0.0 0.00 0.00 0.00 54 1011.8
20260505014718 13 338 0.0 0.0 0.00 0.00 0.00 56 1011.9
20260505014210 13 338 0.0 0.0 0.00 0.00 0.00 54 1011.7
20260505013713 13 90 0.0 0.0 0.00 0.00 0.00 53 1011.3
20260505013152 14 45 0.0 0.0 0.00 0.00 0.00 53 1011.2
20260505012637 13 68 0.0 0.0 0.00 0.00 0.00 53 1011.0
20260505012131 13 270 0.0 0.0 0.00 0.00 0.00 55 1011.1
20260505011616 13 270 0.0 0.0 0.00 0.00 0.00 54 1011.3
20260505011108 13 248 0.0 0.0 0.00 0.00 0.00 54 1011.2
20260505010046 14 68 0.0 0.0 0.00 0.00 0.00 52 1011.1
20260505005539 14 90 0.0 0.0 0.00 0.00 0.00 53 1011.5
20260505004516 14 68 0.0 0.0 0.00 0.00 0.00 51 1011.2
20260505004006 14 90 0.0 0.0 0.00 0.00 0.00 51 1011.1
20260505003457 14 23 0.0 0.0 0.00 0.00 0.00 50 1011.1
20260505002945 14 23 0.0 0.0 0.00 0.00 0.00 50 1011.4
20260505002435 15 45 0.0 0.0 0.00 0.00 0.00 50 1011.4
20260505001925 15 45 0.0 0.0 0.00 0.00 0.00 49 1011.7
20260505001421 15 45 0.0 0.0 0.00 0.00 0.00 46 1011.7
20260505000909 15 270 0.0 0.0 0.00 0.00 0.00 44 1011.4
20260505000406 16 293 0.0 0.0 0.00 0.00 0.00 43 1011.5
20260504235844 16 293 0.0 0.0 0.00 0.00 0.00 41 1011.7
20260504235334 16 293 0.0 0.0 0.00 0.00 0.00 43 1011.9
20260504234825 15 293 0.0 0.0 0.00 0.00 0.00 44 1011.8
20260504234314 15 270 0.0 0.0 0.00 0.00 0.00 45 1011.6
20260504233804 15 45 0.0 0.0 0.00 0.00 0.00 44 1011.6
20260504233254 15 90 0.0 0.0 0.00 0.00 0.00 46 1011.7
20260504232744 16 90 0.0 0.0 0.00 0.00 0.00 42 1011.4
20260504232234 15 68 0.0 0.0 0.00 0.00 0.00 45 1011.4
20260504231726 15 68 0.0 0.0 0.00 0.00 0.00 45 1011.5
20260504231213 16 45 0.0 0.0 0.00 0.00 0.00 44 1011.1
20260504230703 15 338 0.0 0.0 0.00 0.00 0.00 44 1011.1
20260504230153 16 338 0.0 0.0 0.00 0.00 0.00 44 1010.7
20260504225646 16 270 0.0 0.0 0.00 0.00 0.00 41 1010.8
20260504225133 17 270 0.0 0.0 0.00 0.00 0.00 39 1010.5
20260504224112 16 315 0.0 0.0 0.00 0.00 0.00 44 1010.0
20260504223602 16 293 0.0 0.0 0.00 0.00 0.00 44 1009.7
20260504222542 16 45 0.0 0.0 0.00 0.00 0.00 40 1010.0
20260504222032 16 90 0.0 0.0 0.00 0.00 0.00 41 1010.2
20260504221522 16 90 0.0 0.0 0.00 0.00 0.00 42 1010.3
20260504220501 16 45 0.0 0.0 0.00 0.00 0.00 43 1010.8
20260504215442 17 23 0.0 0.0 0.00 0.00 0.00 41 1010.5
20260504214931 16 90 0.0 0.0 0.00 0.00 0.00 40 1010.5
20260504214421 16 338 0.0 0.0 0.00 0.00 0.00 42 1010.8
20260504213912 16 248 0.0 0.0 0.00 0.00 0.00 41 1010.6
20260504213401 17 90 0.0 0.0 0.00 0.00 0.00 38 1010.5
20260504212850 17 68 0.0 0.0 0.00 0.00 0.00 38 1010.4
20260504211831 18 225 0.0 0.0 0.00 0.00 0.00 31 1010.2
20260504211320 18 225 0.0 0.0 0.00 0.00 0.00 32 1010.0
20260504210810 18 180 0.0 0.0 0.00 0.00 0.00 31 1009.9
20260504210300 18 248 0.0 0.0 0.00 0.00 0.00 30 1009.5
20260504205240 18 270 0.0 3.2 0.00 0.00 0.00 32 1009.5
20260504204730 18 248 0.0 0.0 0.00 0.00 0.00 34 1009.4
20260504204219 18 203 0.0 0.0 0.00 0.00 0.00 32 1009.6
20260504203713 18 225 0.0 0.0 0.00 0.00 0.00 32 1009.7
20260504203159 18 248 0.0 0.0 0.00 0.00 0.00 34 1009.7
20260504202139 19 270 0.0 0.0 0.00 0.00 0.00 35 1009.9
20260504201629 20 338 0.0 0.0 0.00 0.00 0.00 33 1010.1
20260504201119 20 270 0.0 0.0 0.00 0.00 0.00 31 1010.0
20260504195548 20 270 0.0 0.0 0.00 0.00 0.00 33 1009.9
20260504195038 20 293 0.0 0.0 0.00 0.00 0.00 33 1009.8
20260504194020 20 293 0.0 0.0 0.00 0.00 0.00 34 1009.9
20260504192958 20 225 0.0 0.0 0.00 0.00 0.00 31 1009.7
20260504192450 20 293 0.0 0.0 0.00 0.00 0.00 32 1009.6
20260504191938 21 338 0.0 0.0 0.00 0.00 0.00 33 1009.8
20260504191428 21 293 0.0 0.0 0.00 0.00 0.00 32 1009.8
20260504190919 20 225 0.0 0.0 0.00 0.00 0.00 32 1009.7
20260504190410 21 270 0.0 0.0 0.00 0.00 0.00 31 1009.8
20260504185857 21 270 0.0 0.0 0.00 0.00 0.00 30 1009.6
20260504183817 21 203 0.0 0.0 0.00 0.00 0.00 31 1009.6
20260504183308 22 293 0.0 0.0 0.00 0.00 0.00 29 1009.5
20260504182758 23 315 0.0 0.0 0.00 0.00 0.00 31 1009.6
20260504182247 21 270 0.0 0.0 0.00 0.00 0.00 26 1009.6
20260504181227 21 248 0.0 0.0 0.00 0.00 0.00 28 1009.7
20260504180716 21 315 0.0 0.0 0.00 0.00 0.00 28 1010.0
20260504180207 21 338 0.0 0.0 0.00 0.00 0.00 30 1009.6
20260504175656 21 315 0.0 0.0 0.00 0.00 0.00 31 1009.7
20260504175146 22 158 0.0 0.0 0.00 0.00 0.00 32 1010.0
20260504174635 22 338 0.0 0.0 0.00 0.00 0.00 30 1009.8
20260504174125 22 270 0.0 0.0 0.00 0.00 0.00 34 1010.2
20260504172046 22 225 0.0 0.0 0.00 0.00 0.00 36 1010.2
20260504171536 22 248 0.0 0.0 0.00 0.00 0.00 38 1010.1
20260504171025 21 315 0.0 0.0 0.00 0.00 0.00 39 1010.3
20260504170514 22 315 0.0 0.0 0.00 0.00 0.00 39 1010.2
20260504160314 20 293 0.0 0.0 0.00 0.00 0.00 43 1010.8
20260504150623 20 315 0.0 0.0 0.00 0.00 0.00 43 1011.0
20260504150112 20 315 0.0 0.0 0.00 0.00 0.00 44 1011.2
20260504140932 20 203 0.0 0.0 0.00 0.00 0.00 44 1011.3
20260504140422 20 270 0.0 0.0 0.00 0.00 0.00 44 1011.4
20260504130730 18 68 0.0 0.0 0.00 0.00 0.00 49 1011.4
20260504130220 18 45 0.0 0.0 0.00 0.00 0.00 48 1011.2